Regional Weather Roundup
Issued by NWS Cleveland, OH

Home | Current Version | Previous Version | Text Only | Print | Product List | Glossary On
Versions: 1 2 3 4 5 6 7 8 9 10 11 12 13 14 15 16 17 18 19 20 21 22 23 24 25 26 27 28 29 30 31 32 33 34 35 36 37 38 39 40 41 42 43 44 45 46 47 48 49 50
000
ASUS41 KCLE 270512
RWRCLE
OHIO REGIONAL WEATHER ROUNDUP
NATIONAL WEATHER SERVICE WILMINGTON, OH
100 AM EDT SUN MAY 27 2018

NOTE: "FAIR" INDICATES FEW OR NO CLOUDS BELOW 12,000 FEET WITH NO
SIGNIFICANT WEATHER AND/OR OBSTRUCTIONS TO VISIBILITY.

OHZ001>008-015>018-024>027-034-035-043-044-270600-
   NORTHWEST OHIO

CITY           SKY/WX    TMP DP  RH WIND       PRES   REMARKS
DEFIANCE       FAIR      68  66  93 E3        29.85R
FINDLAY        FAIR      70  68  93 S6        29.86R
TOLEDO EXPRESS FAIR      67  67 100 CALM      29.84F FOG
TOLEDO EXEC    FAIR      69  65  86 S3        29.85F
LIMA           FAIR      69  68  96 S6        29.87S
$$

OHZ009>014-019>023-028>033-038-089-270600-
   NORTHEAST OHIO

CITY           SKY/WX    TMP DP  RH WIND       PRES   REMARKS
CLE-HOPKINS    MOCLDY    68  66  93 S6        29.88R
CLE-LAKEFRONT  FAIR      71  65  81 S5        29.84S
CUY CO. ARPT   NOT AVBL
LORAIN-ELYRIA  CLOUDY    67  60  78 S5        29.87R
ASHTABULA      FAIR      68  67  96 S6        29.88F
AKRON-CANTON   CLOUDY    67  64  90 S5        29.89S
WOOSTER        MOCLDY    66  64  93 S7        29.89S
MANSFIELD      CLOUDY    68  68 100 S8        29.89S
YOUNGSTOWN     CLOUDY    68  67  96 SW5       29.88S
$$

OHZ042-051>053-060>062-070>072-077>081-270600-
  SOUTHWEST OHIO

CITY           SKY/WX    TMP DP  RH WIND       PRES   REMARKS
CINC-COVINGTON CLOUDY    73  66  78 E3        29.90R
CINC-LUNKEN    CLOUDY    71  68  90 SE6       29.89S
HAMILTON       CLOUDY    70  67  90 SE5       29.88F
DAYTON         MOCLDY    70  69  97 SW8       29.88S
WRIGHT-PAT AFB FAIR      70  68  93 S5        29.87S
DAYTON GENERAL FAIR      71  64  78 S5        29.88R
WILMINGTON     FAIR      69  69 100 SW8       29.88S
$$

OHZ036-037-039>041-045>050-054>059-063>069-073>076-082>088-270600-
  CENTRAL AND SOUTHEAST OHIO

CITY           SKY/WX    TMP DP  RH WIND       PRES   REMARKS
COLUMBUS       MOCLDY    70  69  97 SE6       29.87S
OSU AIRPORT    FAIR      70  68  93 SE3       29.87S
BOLTON FIELD   CLOUDY    68  68 100 S3        29.89R FOG
RICKENBACK AFB CLOUDY    68  68 100 MISG      29.88R
NEWARK         MOCLDY    69  67  93 CALM      29.87F
MARION         FAIR      68  66  93 S7        29.88S
LANCASTER      CLOUDY    68  67  96 SW5       29.89R
ZANESVILLE     MOCLDY    68  66  93 S5        29.89S
NEW PHILLY     CLOUDY    67  66  97 CALM      29.89S
$$




USA.gov is the U.S. government's official web portal to all federal, state and local government web resources and services.